This is the latest recevied weather packets stored in our database for station/object OH2MUI. If no packets are shown the sender has not sent any weather packets the latest 1 day(s).
| Time | Temp. | Humidity | Pressure | Rain* | Wind** | Luminosity | Snow |
|---|---|---|---|---|---|---|---|
| 1778020384 | 2.78° C | 76% | 1010.2 hPa | 0 mm | 0 m/s | - | - |
| 1778019194 | 2.78° C | 76% | 1010.1 hPa | 0 mm | 0.45 m/s, 222° | - | - |
| 1778018094 | 3.33° C | 75% | 1010 hPa | 0 mm | 0.89 m/s, 225° | - | - |
| 1778018089 | 3.33° C | 75% | 1010 hPa | 0 mm | 0.89 m/s, 225° | - | - |
| 1778017019 | 3.33° C | 74% | 1010 hPa | 0 mm | 0.89 m/s, 230° | - | - |
| 1778015845 | - | - | - | - | 1.34 m/s, 225° | - | - |
| 1778015839 | 3.89° C | 73% | 1009.9 hPa | 0 mm | 1.34 m/s, 225° | - | - |
| 1778014774 | 3.89° C | 72% | 1009.7 hPa | 0 mm | 1.34 m/s, 237° | - | - |
| 1778013592 | 4.44° C | 71% | 1009.4 hPa | 0 mm | 0.45 m/s, 227° | - | - |
| 1778012495 | 4.44° C | 69% | 1009.2 hPa | 0 mm | 0.45 m/s, 220° | - | - |
| 1778011429 | 5° C | 68% | 1009 hPa | 0 mm | 1.34 m/s, 222° | - | - |
| 1778010284 | 5° C | 65% | 1008.9 hPa | 0 mm | 0 m/s | - | - |
| 1778009124 | 5.56° C | 65% | 1008.8 hPa | 0 mm | 1.34 m/s, 225° | - | - |
| 1778008039 | 5.56° C | 64% | 1008.7 hPa | 0 mm | 0.45 m/s, 240° | - | - |
| 1778006919 | 6.11° C | 64% | 1008.5 hPa | 0 mm | 0.45 m/s, 222° | - | - |
| 1778005885 | 6.11° C | 61% | - | 0 mm | 1.34 m/s, 230° | - | - |
| 1778005879 | 6.11° C | 61% | 1008.3 hPa | 0 mm | 1.34 m/s, 230° | - | - |
| 1778004899 | 6.67° C | 58% | 1008.1 hPa | 0 mm | 1.34 m/s, 228° | - | - |
| 1778003772 | 7.22° C | 58% | 1008.1 hPa | 0 mm | 1.79 m/s, 231° | - | - |
| 1778002739 | 8.33° C | 57% | 1007.8 hPa | 0 mm | 1.34 m/s, 236° | - | - |
| 1778002732 | 8.33° C | 57% | 1007.8 hPa | 0 mm | 1.34 m/s, 236° | - | - |
| 1778001679 | 8.89° C | 55% | 1007.6 hPa | 0 mm | 1.79 m/s, 229° | - | - |
| 1778000609 | 8.89° C | 54% | 1007.5 hPa | 0 mm | 1.79 m/s, 227° | - | - |
| 1777999470 | 8.89° C | 55% | 1007.3 hPa | 0 mm | 1.34 m/s, 231° | - | - |
| 1777998309 | 8.89° C | 55% | 1007.2 hPa | 0 mm | 1.34 m/s, 218° | - | - |
* Rain latest hour (hover to see other rain measurements)
** Current wind speed in m/s (hover to see current wind gust speed)